Regional Weather Roundup
Issued by NWS Sterling, VA

Home | Current Version | Previous Version | Graphics & Text | Print | Product List | Glossary On
Versions: 1 2 3 4 5 6 7 8 9 10 11 12 13 14 15 16 17 18 19 20 21 22 23 24 25 26 27 28 29 30 31 32 33 34 35 36 37 38 39 40 41 42 43 44 45 46 47 48 49 50
000
ASUS41 KLWX 220710
RWRLWX

REGIONAL WEATHER ROUNDUP
NATIONAL WEATHER SERVICE BALTIMORE MD/WASHINGTON DC
300 AM EDT FRI MAY 22 2015

Note: "FAIR" indicates few or no clouds below 12,000 feet
with no significant weather and/or obstructions to visibility.
 TC=TEMPERATURE CELSIUS

 * =Non NWS site. Station does not report precipitation (e.g. rain,
    snow, etc.), thunder, or fog.

DCZ001-MDZ009-015-VAZ040>042-051-053>054-220800-
WASHINGTON METRO

CITY           SKY/WX    TMP DP  RH WIND       PRES   REMARKS
WASHINGTON NAT PTCLDY    55  48  77 NW8       29.98R
DULLES         PTCLDY    51  45  79 W9        29.99R
ANDREWS AFB    CLEAR     52  49  88 W8        29.95S
FT BELVOIR     CLEAR     51  48  91 NW7       29.97S
QUANTICO       CLEAR     53  46  77 NW8       30.00R
COLLEGE PARK*  PTCLDY    52  50  93 CALM      29.96S
LEESBURG*      FAIR      52  48  87 NW9       30.00R
GAITHERSBURG*  PTCLDY    50  45  81 NW8       30.01R

$$

MDZ006>007-011-014-220800-
BALTIMORE METRO

CITY           SKY/WX    TMP DP  RH WIND       PRES   REMARKS
BWI AIRPORT    PTCLDY    50  47  89 W5        29.95S
MD SCIENCE CTR   N/A     54  47  77 MISG      29.95S
MARTIN STATE   PTCLDY    50  50 100 NW5       29.95F
ANNAPOLIS      PTCLDY    52  48  86 W7        29.94F
FORT MEADE*    CLEAR     46  46 100 W3        29.98S

$$

MDZ012-015-019>023-220800-
MARYLAND EASTERN SHORE

CITY           SKY/WX    TMP DP  RH WIND       PRES   REMARKS
OCEAN CITY     PTCLDY    50  48  93 NW7       29.91S
SALISBURY      MOCLDY    49  48  97 W6        29.92S
BAY BRIDGE AP*   N/A    N/A N/A N/A NW6       29.95S
CAMBRIDGE*     CLOUDY    55  52  88 NW7       29.93S
EASTON*        CLOUDY    55  55 100 NW7       29.97S

$$

MDZ017>025-220800-
SOUTHERN MARYLAND

CITY           SKY/WX    TMP DP  RH WIND       PRES   REMARKS
PATUXENT RIVER CLOUDY    52  49  89 W10       29.95S
ST INIGOES     CLEAR     52  49  89 NW3       29.95S
LEONARDTOWN*   CLEAR     48  45  87 W5        29.97S

$$

MDZ003>005-220800-
NORTH CENTRAL MARYLAND

CITY           SKY/WX    TMP DP  RH WIND       PRES   REMARKS
FREDERICK*     MOCLDY    50  46  87 W6        30.02R
HAGERSTOWN APT CLEAR     49  44  83 W5        30.00R
WESTMINSTER*   PTCLDY    50  45  81 NW9G17    29.96R

$$

MDZ501>502-220800-
WESTERN MARYLAND

CITY           SKY/WX    TMP DP  RH WIND       PRES   REMARKS
OAKLAND*       CLEAR     37 N/A N/A W10       30.03F HAZE
CUMBERLAND*    CLEAR     50  43  76 W7        30.07S

$$

VAZ025>031-220800-
SHENANDOAH VALLEY

CITY           SKY/WX    TMP DP  RH WIND       PRES   REMARKS
WINCHESTER*    CLEAR     52  41  66 NW7       30.03R
FRONT ROYAL*   FAIR      48  43  81 CALM      30.03R
LURAY*         FAIR      52  45  76 W7        30.04S
NEW MARKET*    FAIR      47  44  88 CALM      30.04S
STAUNTON*      CLOUDY    50  43  77 CALM      30.07R
WAYNESBORO*    FAIR      48  42  81 W3        30.05R

$$

WVZ021-048>050-054>055-220800-
EASTERN WEST VIRGINIA PANHANDLE

CITY           SKY/WX    TMP DP  RH WIND       PRES   REMARKS
MARTINSBURG    CLEAR     51  42  71 NW9       30.01S
PETERSBURG*    CLEAR     46  42  84 CALM      30.07R

$$

VAZ036>039-050-220800-
CENTRAL FOOTHILLS

CITY           SKY/WX    TMP DP  RH WIND       PRES   REMARKS
CHARLOTTESVILL PTCLDY    52  44  74 NW9       30.00F
CULPEPER*      CLEAR     49  46  88 NW6       30.00S
ORANGE*        CLEAR     48  46  93 CALM      30.02R FOG
GORDONSVILLE*  FAIR      49  47  95 NW7       30.00R
WARRENTON*     FAIR      50  47  90 CALM      29.99R

$$

VAZ055>057-220800-
NORTH AND CENTRAL PIEDMONT

CITY           SKY/WX    TMP DP  RH WIND       PRES   REMARKS
FREDERICKSBRG* CLEAR     54  52  93 NW6       29.99S
STAFFORD*      CLEAR     48  46  92 W3        30.03S

$$

NCZ024-NYZ072-PAZ021-071-VAZ022-071-220800-
OTHER REGIONAL OBSERVATIONS

CITY           SKY/WX    TMP DP  RH WIND       PRES   REMARKS
NEW YORK CITY  CLOUDY    55  44  66 W6        29.88F
PHILADELPHIA   MOCLDY    53  47  79 W6        29.90F
PITTSBURGH     CLEAR     45  39  79 W6        30.03S
ROANOKE        PTCLDY    53  40  61 N8G24     30.07R
RICHMOND       MOCLDY    53  50  89 N5        29.98S
RALEIGH        MOCLDY    57  54  89 CALM      30.02S

$$

ANZ530>537-220800-
MARINE OBSERVATIONS

STATION/POSITION TIME  TEMP    WIND        PRES
                       AIR SEA DIR/SP/G
                 (UTC) (F)     (DEG/KT/KT) (MB)
THOMAS PT LIGHT  0700   53 66  320/ 10/ 12 1014.5F
BALT KEY BRIDGE  0600   55                 1013.8S
LEWISETTA        0600   55 69              1014.2F
PINEY POINT      0600          350/ 14/ 15   N/A

$$




USA.gov is the U.S. government's official web portal to all federal, state and local government web resources and services.